Indianapolis, IN

5:06 PM EDT on June 25, 2017 (GMT -0400)
Indianapolis International

Weather History for KIND - April, 2014

Change the Weather History Date:

Monday, April 28, 2014

  Actual Average Record
Temperature  
Mean Temperature 60 °F 57 °F  
Max Temperature 70 °F 68 °F 86 °F (1894)
Min Temperature 50 °F 47 °F 28 °F (1976)
Degree Days  
Heating Degree Days 5 8  
Month to date heating degree days 339 354  
Since 1 July heating degree days 6035 5204  
Cooling Degree Days 0 1  
Month to date cooling degree days 4 11  
Year to date cooling degree days 4 13  
Growing Degree Days 10 (Base 50)    
Moisture  
Dew Point 52 °F    
Average Humidity 71    
Maximum Humidity 93    
Minimum Humidity 48    
Precipitation  
Precipitation 0.64 in 0.14 in 1.71 in (1996)
Month to date precipitation 5.27 3.53  
Year to date precipitation 12.44 12.07  
Snow  
Snow 0.00 in 0.00 in 0.00 in ()
Month to date snowfall 0.3 0.2  
Since 1 July snowfall 55.7 25.9  
Snow Depth 0.00 in    
Sea Level Pressure  
Sea Level Pressure 29.65 in    
Wind  
Wind Speed 15 mph (ESE)    
Max Wind Speed 28 mph    
Max Gust Speed 34 mph    
Visibility 8 miles    
Events Rain , Thunderstorm    
T = Trace of Precipitation, MM = Missing Value Source: NWS Daily Summary

Daily Weather History Graph

Daily Weather History Graph

Search for Another Location

Airport or City:

Trip Planner

Search our weather history database for the weather conditions in past years. The results will help you decide how hot, cold, wet, or windy it might be!

Date:

Astronomy

Apr. 28, 2014 Rise Set
Actual Time 6:49 AM EDT 8:36 PM EDT
Civil Twilight 6:20 AM EDT 9:05 PM EDT
Nautical Twilight 5:45 AM EDT 9:40 PM EDT
Astronomical Twilight 5:08 AM EDT 10:18 PM EDT
Moon 6:27 AM EDT (4/28) 8:13 PM EDT (4/28)
Length of Visible Light 14h 44m
Length of Day
13h 46m
Waning Crescent, 0% of the Moon is Illuminated
Apr 28
Waning Crescent
Apr 29
New
May 6
First Quarter
May 14
Full
May 21
Last Quarter

Hourly Weather History & Observations

Time (EDT) Temp. Dew Point Humidity Pressure Visibility Wind Dir Wind Speed Gust Speed Precip Events Conditions
12:54 AM 62.1 °F 43.0 °F 50% 29.80 in 10.0 mi East 10.4 mph - 0.00 in   Overcast
1:54 AM 61.0 °F 42.1 °F 50% 29.80 in 10.0 mi East 12.7 mph - N/A   Overcast
2:54 AM 60.1 °F 41.0 °F 49% 29.75 in 10.0 mi East 17.3 mph - 0.00 in   Overcast
3:54 AM 60.8 °F 44.6 °F 55% 29.74 in 10.0 mi East 15.0 mph - N/A   Overcast
4:01 AM 60.1 °F 43.0 °F 53% 29.74 in 10.0 mi East 12.7 mph - N/A   Overcast
4:38 AM 60.1 °F 43.0 °F 53% 29.72 in 10.0 mi East 13.8 mph - 0.00 in   Overcast
4:54 AM 59.0 °F 44.1 °F 58% 29.69 in 10.0 mi East 13.8 mph - 0.00 in Rain Light Rain
5:54 AM 54.0 °F 48.0 °F 80% 29.69 in 4.0 mi East 10.4 mph - 0.17 in Rain Heavy Rain
6:13 AM 53.1 °F 48.9 °F 86% 29.69 in 4.0 mi East 10.4 mph - 0.10 in Rain Heavy Rain
6:54 AM 52.0 °F 48.9 °F 89% 29.68 in 10.0 mi East 12.7 mph - 0.19 in Rain Light Rain
7:41 AM 52.0 °F 48.0 °F 86% 29.71 in 2.0 mi ENE 9.2 mph - 0.02 in Rain Rain
7:54 AM 51.1 °F 48.0 °F 89% 29.71 in 2.0 mi East 11.5 mph - 0.05 in Rain Rain
8:08 AM 51.1 °F 48.9 °F 92% 29.69 in 3.0 mi ENE 13.8 mph - 0.05 in Rain Rain
8:38 AM 50.0 °F 48.9 °F 96% 29.71 in 5.0 mi East 11.5 mph - 0.08 in Rain Light Rain
8:54 AM 50.0 °F 50.0 °F 100% 29.73 in 7.0 mi East 4.6 mph - 0.09 in   Light Drizzle
9:44 AM 51.1 °F 50.0 °F 96% 29.68 in 7.0 mi ENE 11.5 mph - 0.01 in   Overcast
9:54 AM 51.1 °F 51.1 °F 100% 29.66 in 7.0 mi East 15.0 mph - 0.01 in Rain Light Rain
10:36 AM 52.0 °F 51.1 °F 97% 29.61 in 10.0 mi East 16.1 mph - 0.00 in   Overcast
10:54 AM 53.1 °F 52.0 °F 96% 29.62 in 9.0 mi ESE 15.0 mph - 0.00 in   Overcast
11:54 AM 55.9 °F 54.0 °F 93% 29.66 in 9.0 mi SE 13.8 mph - N/A   Overcast
12:54 PM 59.0 °F 57.0 °F 93% 29.57 in 8.0 mi East 15.0 mph - N/A   Overcast
1:22 PM 60.1 °F 57.0 °F 90% 29.62 in 10.0 mi ENE 9.2 mph - N/A   Overcast
1:54 PM 62.1 °F 57.9 °F 86% 29.64 in 10.0 mi ENE 6.9 mph - N/A   Overcast
2:43 PM 68.0 °F 59.0 °F 73% 29.66 in 10.0 mi South 17.3 mph - N/A   Overcast
2:54 PM 68.0 °F 57.0 °F 68% 29.67 in 10.0 mi South 15.0 mph - N/A   Overcast
3:54 PM 68.0 °F 55.0 °F 63% 29.64 in 10.0 mi South 19.6 mph 31.1 mph N/A   Overcast
4:54 PM 66.2 °F 55.4 °F 68% 29.59 in 10.0 mi South 19.6 mph - N/A   Overcast
5:54 PM 69.1 °F 54.0 °F 58% 29.57 in 10.0 mi SSE 20.7 mph 28.8 mph N/A   Scattered Clouds
6:54 PM 68.0 °F 52.0 °F 56% 29.58 in 10.0 mi SSE 19.6 mph - N/A   Scattered Clouds
7:54 PM 66.0 °F 53.1 °F 63% 29.58 in 10.0 mi SSE 16.1 mph - N/A   Overcast
8:54 PM 63.0 °F 54.0 °F 72% 29.55 in 10.0 mi SE 19.6 mph 34.5 mph 0.00 in Rain Light Rain
9:54 PM 62.1 °F 55.0 °F 78% 29.59 in 10.0 mi SSW 11.5 mph 23.0 mph 0.00 in Rain , Thunderstorm Light Thunderstorms and Rain
10:25 PM 61.0 °F 55.9 °F 83% 29.60 in 10.0 mi South 8.1 mph - 0.01 in   Overcast
10:54 PM 61.0 °F 55.9 °F 83% 29.59 in 10.0 mi SSE 17.3 mph - 0.01 in   Overcast
11:05 PM 61.0 °F 55.9 °F 83% 29.59 in 10.0 mi SSE 11.5 mph - N/A   Overcast
11:16 PM 60.1 °F 57.0 °F 90% 29.59 in 10.0 mi SSE 11.5 mph - N/A   Overcast
11:30 PM 59.0 °F 57.0 °F 93% 29.58 in 3.0 mi SE 15.0 mph - 0.00 in Rain Heavy Rain
11:44 PM 59.0 °F 57.9 °F 96% 29.57 in 3.0 mi SE 12.7 mph - 0.12 in Rain Light Rain
11:54 PM 59.0 °F 57.9 °F 96% 29.56 in 10.0 mi SE 11.5 mph - 0.12 in   Overcast